LVCTT SABE-SAZB

Flight info

Callsign LVCTT
Flight time 0h 55m
Altitude 43000
Route PAL9 GBE UT694 XODIK UW18 MOXAN MOXAN2U
Aircraft C750/M-SBDE3FGHRWXY/S

Departure

Time 2026-05-06 21:29
Airport Aeroparque Jorge Newbery (SABE)

Arrival

Time 2026-05-06 22:25
Airport Comandante Espora Airport (SAZB)
Time Latitude Longitude Altitude Speed Heading
2026-05-06 21:05 -34.56482 -58.40911 22 ft 0 kts 34°
2026-05-06 21:23 -34.56481 -58.40912 22 ft 0 kts
2026-05-06 21:24 -34.56480 -58.40917 22 ft 0 kts 303°
2026-05-06 21:24 -34.56475 -58.40943 22 ft 5 kts 284°
2026-05-06 21:24 -34.56442 -58.41024 22 ft 15 kts 301°
2026-05-06 21:24 -34.56366 -58.41169 24 ft 23 kts 303°
2026-05-06 21:25 -34.56267 -58.41344 22 ft 27 kts 304°
2026-05-06 21:25 -34.56193 -58.41481 25 ft 8 kts 302°
2026-05-06 21:25 -34.56158 -58.41475 22 ft 6 kts 28°
2026-05-06 21:25 -34.56104 -58.41431 22 ft 11 kts 35°
2026-05-06 21:26 -34.56024 -58.41365 24 ft 16 kts 34°
2026-05-06 21:26 -34.55920 -58.41327 24 ft 17 kts 323°
2026-05-06 21:26 -34.55855 -58.41466 22 ft 22 kts 296°
2026-05-06 21:26 -34.55775 -58.41658 22 ft 28 kts 297°
2026-05-06 21:27 -34.55681 -58.41863 23 ft 27 kts 305°
2026-05-06 21:27 -34.55574 -58.42043 22 ft 26 kts 305°
2026-05-06 21:27 -34.55471 -58.42214 24 ft 24 kts 307°
2026-05-06 21:27 -34.55379 -58.42361 23 ft 8 kts 301°
2026-05-06 21:28 -34.55376 -58.42369 22 ft 0 kts 292°
2026-05-06 21:28 -34.55366 -58.42415 23 ft 13 kts 282°
2026-05-06 21:28 -34.55406 -58.42501 26 ft 9 kts 154°
2026-05-06 21:29 -34.55492 -58.42354 24 ft 63 kts 124°
2026-05-06 21:29 -34.55944 -58.41541 23 ft 155 kts 124°
2026-05-06 21:29 -34.56612 -58.40365 268 ft 183 kts 125°
2026-05-06 21:29 -34.57385 -58.38987 629 ft 209 kts 122°
2026-05-06 21:30 -34.58083 -58.37436 1448 ft 209 kts 114°
2026-05-06 21:30 -34.58176 -58.35692 2151 ft 215 kts 81°
2026-05-06 21:30 -34.57575 -58.34024 3076 ft 216 kts 64°
2026-05-06 21:30 -34.56817 -58.32360 3686 ft 240 kts 63°
2026-05-06 21:31 -34.56002 -58.30522 4650 ft 244 kts 60°
2026-05-06 21:31 -34.54945 -58.28942 5521 ft 249 kts 38°
2026-05-06 21:31 -34.53452 -58.27923 6538 ft 245 kts 19°
2026-05-06 21:31 -34.51791 -58.27346 7336 ft 253 kts
2026-05-06 21:32 -34.50024 -58.27426 8188 ft 256 kts 345°
2026-05-06 21:32 -34.47039 -58.29660 10131 ft 265 kts 312°
2026-05-06 21:32 -34.46117 -58.31729 10331 ft 298 kts 291°
2026-05-06 21:33 -34.45905 -58.34368 10362 ft 337 kts 268°
2026-05-06 21:33 -34.46746 -58.37092 11020 ft 354 kts 244°
2026-05-06 21:33 -34.48529 -58.39229 11829 ft 372 kts 218°
2026-05-06 21:33 -34.50909 -58.40528 12688 ft 378 kts 205°
2026-05-06 21:34 -34.53429 -58.41489 13434 ft 383 kts 201°
2026-05-06 21:34 -34.56009 -58.42382 14150 ft 386 kts 201°
2026-05-06 21:34 -34.58549 -58.43438 14878 ft 387 kts 206°
2026-05-06 21:34 -34.61026 -58.44608 15579 ft 389 kts 206°
2026-05-06 21:35 -34.63581 -58.45731 16271 ft 393 kts 204°
2026-05-06 21:35 -34.66180 -58.46786 16983 ft 396 kts 204°
2026-05-06 21:35 -34.68797 -58.47885 17683 ft 399 kts 205°
2026-05-06 21:35 -34.71410 -58.49037 18399 ft 401 kts 205°
2026-05-06 21:36 -34.74054 -58.50188 19081 ft 406 kts 205°
2026-05-06 21:36 -34.76737 -58.51327 19749 ft 410 kts 205°
2026-05-06 21:36 -34.79447 -58.52480 20432 ft 414 kts 205°
2026-05-06 21:36 -34.82186 -58.53666 21069 ft 419 kts 206°
2026-05-06 21:37 -34.84945 -58.54861 21722 ft 424 kts 206°
2026-05-06 21:37 -34.87748 -58.56066 22358 ft 428 kts 206°
2026-05-06 21:37 -34.90577 -58.57281 22964 ft 433 kts 206°
2026-05-06 21:37 -34.93314 -58.58462 23556 ft 437 kts 206°
2026-05-06 21:38 -34.96194 -58.59710 24154 ft 442 kts 206°
2026-05-06 21:38 -34.99114 -58.60972 24702 ft 447 kts 206°
2026-05-06 21:38 -35.02058 -58.62241 25325 ft 450 kts 206°
2026-05-06 21:38 -35.05021 -58.63521 25917 ft 453 kts 206°
2026-05-06 21:39 -35.07967 -58.64801 26447 ft 457 kts 206°
2026-05-06 21:39 -35.10971 -58.66105 27043 ft 459 kts 206°
2026-05-06 21:39 -35.13999 -58.67416 27578 ft 463 kts 207°
2026-05-06 21:39 -35.17048 -58.68739 28121 ft 466 kts 207°
2026-05-06 21:40 -35.20112 -58.70070 28652 ft 469 kts 207°
2026-05-06 21:40 -35.23203 -58.71416 29134 ft 473 kts 207°
2026-05-06 21:40 -35.26308 -58.72767 29661 ft 475 kts 207°
2026-05-06 21:40 -35.29436 -58.74127 30140 ft 479 kts 207°
2026-05-06 21:41 -35.32585 -58.75499 30624 ft 481 kts 207°
2026-05-06 21:41 -35.35730 -58.76870 31344 ft 477 kts 207°
2026-05-06 21:41 -35.38844 -58.78228 32091 ft 473 kts 208°
2026-05-06 21:41 -35.41937 -58.79580 32800 ft 470 kts 208°
2026-05-06 21:42 -35.45004 -58.80922 33517 ft 466 kts 209°
2026-05-06 21:42 -35.48048 -58.82254 34240 ft 463 kts 210°
2026-05-06 21:42 -35.51069 -58.83575 34954 ft 458 kts 210°
2026-05-06 21:42 -35.54066 -58.84888 35651 ft 454 kts 210°
2026-05-06 21:43 -35.57029 -58.86191 36301 ft 451 kts 210°
2026-05-06 21:43 -35.59981 -58.87490 36894 ft 450 kts 211°
2026-05-06 21:43 -35.62915 -58.88777 37570 ft 446 kts 211°
2026-05-06 21:43 -35.65825 -58.90053 38256 ft 441 kts 211°
2026-05-06 21:44 -35.68656 -58.91299 38905 ft 436 kts 211°
2026-05-06 21:44 -35.71504 -58.92557 39459 ft 433 kts 211°
2026-05-06 21:44 -35.74340 -58.93809 39857 ft 434 kts 211°
2026-05-06 21:44 -35.77193 -58.95071 40205 ft 435 kts 211°
2026-05-06 21:45 -35.80045 -58.96329 40585 ft 436 kts 211°
2026-05-06 21:45 -35.82908 -58.97591 40967 ft 437 kts 211°
2026-05-06 21:45 -35.85778 -58.98860 41327 ft 438 kts 211°
2026-05-06 21:45 -35.88624 -59.00184 41626 ft 440 kts 210°
2026-05-06 21:46 -35.91466 -59.01537 41933 ft 433 kts 216°
2026-05-06 21:46 -35.94126 -59.03227 42301 ft 427 kts 219°
2026-05-06 21:46 -35.96687 -59.05055 42671 ft 423 kts 221°
2026-05-06 21:46 -35.99225 -59.06959 42690 ft 431 kts 222°
2026-05-06 21:47 -36.04086 -59.11303 42692 ft 433 kts 232°
2026-05-06 21:47 -36.08151 -59.16883 42717 ft 444 kts 237°
2026-05-06 21:48 -36.10255 -59.19743 42709 ft 455 kts 233°
2026-05-06 21:48 -36.12602 -59.22433 42715 ft 466 kts 229°
2026-05-06 21:48 -36.17556 -59.27746 42713 ft 471 kts 231°
2026-05-06 21:49 -36.22256 -59.33388 42695 ft 471 kts 231°
2026-05-06 21:49 -36.27124 -59.38862 42697 ft 473 kts 231°
2026-05-06 21:50 -36.31875 -59.44424 42689 ft 472 kts 231°
2026-05-06 21:50 -36.36709 -59.49979 42695 ft 473 kts 231°
2026-05-06 21:51 -36.41506 -59.55556 42689 ft 473 kts 231°
2026-05-06 21:51 -36.46317 -59.61135 42690 ft 473 kts 231°
2026-05-06 21:52 -36.51120 -59.66722 42689 ft 473 kts 231°
2026-05-06 21:52 -36.55885 -59.72275 42694 ft 473 kts 231°
2026-05-06 21:53 -36.60672 -59.77895 42689 ft 470 kts 233°
2026-05-06 21:53 -36.65154 -59.83776 42689 ft 475 kts 229°
2026-05-06 21:54 -36.70309 -59.89010 42690 ft 474 kts 230°
2026-05-06 21:54 -36.74872 -59.94854 42704 ft 469 kts 235°
2026-05-06 21:55 -36.79588 -60.00572 42693 ft 477 kts 229°
2026-05-06 21:55 -36.84501 -60.06164 42691 ft 477 kts 232°
2026-05-06 21:56 -36.89274 -60.11929 42693 ft 480 kts 231°
2026-05-06 21:56 -36.93356 -60.16634 42696 ft 479 kts 231°
2026-05-06 21:57 -36.98204 -60.22442 42686 ft 487 kts 231°
2026-05-06 21:57 -37.03174 -60.28277 42697 ft 493 kts 231°
2026-05-06 21:58 -37.08152 -60.34204 42703 ft 496 kts 231°
2026-05-06 21:58 -37.13176 -60.40162 42691 ft 498 kts 231°
2026-05-06 21:59 -37.18199 -60.46144 42697 ft 498 kts 231°
2026-05-06 21:59 -37.23223 -60.52137 42696 ft 498 kts 231°
2026-05-06 22:00 -37.28218 -60.58105 42708 ft 499 kts 231°
2026-05-06 22:00 -37.33272 -60.64157 42710 ft 494 kts 231°
2026-05-06 22:01 -37.35727 -60.67084 42699 ft 482 kts 231°
2026-05-06 22:01 -37.38107 -60.69936 42675 ft 460 kts 232°
2026-05-06 22:01 -37.40363 -60.72644 42621 ft 431 kts 232°
2026-05-06 22:01 -37.42414 -60.75089 41638 ft 409 kts 233°
2026-05-06 22:02 -37.44511 -60.77669 39931 ft 431 kts 233°
2026-05-06 22:02 -37.46686 -60.80323 38699 ft 438 kts 231°
2026-05-06 22:02 -37.48920 -60.82977 37497 ft 443 kts 231°
2026-05-06 22:02 -37.51156 -60.85639 36491 ft 440 kts 232°
2026-05-06 22:03 -37.53364 -60.88321 35526 ft 447 kts 233°
2026-05-06 22:03 -37.55614 -60.91077 34911 ft 449 kts 233°
2026-05-06 22:03 -37.57872 -60.93789 34445 ft 448 kts 232°
2026-05-06 22:03 -37.60137 -60.96511 33973 ft 451 kts 233°
2026-05-06 22:04 -37.62400 -60.99262 33491 ft 452 kts 233°
2026-05-06 22:04 -37.64663 -61.02020 33007 ft 453 kts 233°
2026-05-06 22:04 -37.66937 -61.04780 32518 ft 455 kts 233°
2026-05-06 22:04 -37.69203 -61.07522 32033 ft 457 kts 233°
2026-05-06 22:05 -37.71503 -61.10317 31542 ft 460 kts 233°
2026-05-06 22:05 -37.73809 -61.13129 31065 ft 460 kts 234°
2026-05-06 22:05 -37.76123 -61.15955 30581 ft 465 kts 233°
2026-05-06 22:05 -37.78460 -61.18804 30084 ft 466 kts 233°
2026-05-06 22:06 -37.80795 -61.21640 29585 ft 464 kts 233°
2026-05-06 22:06 -37.83107 -61.24460 29084 ft 460 kts 233°
2026-05-06 22:06 -37.85400 -61.27270 28585 ft 457 kts 233°
2026-05-06 22:06 -37.87680 -61.30072 28078 ft 455 kts 233°
2026-05-06 22:07 -37.89949 -61.32852 27581 ft 452 kts 233°
2026-05-06 22:07 -37.92208 -61.35604 27083 ft 450 kts 233°
2026-05-06 22:07 -37.94446 -61.38347 26588 ft 446 kts 233°
2026-05-06 22:07 -37.96649 -61.41058 25942 ft 423 kts 233°
2026-05-06 22:08 -37.98628 -61.43425 23976 ft 367 kts 233°
2026-05-06 22:08 -38.00409 -61.45600 20380 ft 352 kts 234°
2026-05-06 22:08 -38.02134 -61.47818 16258 ft 352 kts 233°
2026-05-06 22:08 -38.03862 -61.49997 12538 ft 344 kts 231°
2026-05-06 22:09 -38.05544 -61.52020 9772 ft 328 kts 229°
2026-05-06 22:09 -38.07123 -61.53940 8765 ft 299 kts 228°
2026-05-06 22:09 -38.08576 -61.55749 8876 ft 293 kts 227°
2026-05-06 22:09 -38.10011 -61.57536 9014 ft 289 kts 227°
2026-05-06 22:10 -38.11448 -61.59309 9148 ft 288 kts 227°
2026-05-06 22:10 -38.12882 -61.61077 9282 ft 287 kts 227°
2026-05-06 22:10 -38.14317 -61.62855 9413 ft 288 kts 227°
2026-05-06 22:10 -38.15755 -61.64638 9542 ft 289 kts 228°
2026-05-06 22:11 -38.17195 -61.66420 9661 ft 288 kts 228°
2026-05-06 22:11 -38.18637 -61.68208 9785 ft 295 kts 228°
2026-05-06 22:11 -38.20124 -61.70054 9922 ft 298 kts 228°
2026-05-06 22:11 -38.21596 -61.71880 10061 ft 300 kts 228°
2026-05-06 22:12 -38.23112 -61.73760 10184 ft 300 kts 229°
2026-05-06 22:12 -38.24609 -61.75617 10309 ft 301 kts 229°
2026-05-06 22:12 -38.26086 -61.77454 10427 ft 302 kts 229°
2026-05-06 22:12 -38.27591 -61.79328 10553 ft 303 kts 229°
2026-05-06 22:13 -38.29155 -61.81286 10587 ft 331 kts 229°
2026-05-06 22:13 -38.30796 -61.83489 10415 ft 344 kts 237°
2026-05-06 22:13 -38.31730 -61.86112 10150 ft 310 kts 258°
2026-05-06 22:13 -38.32120 -61.88689 9993 ft 284 kts 264°
2026-05-06 22:14 -38.32394 -61.91144 9845 ft 277 kts 265°
2026-05-06 22:14 -38.32646 -61.93576 9686 ft 277 kts 265°
2026-05-06 22:14 -38.32892 -61.96017 9538 ft 278 kts 265°
2026-05-06 22:14 -38.33129 -61.98476 9182 ft 283 kts 265°
2026-05-06 22:15 -38.33358 -62.00970 8661 ft 282 kts 265°
2026-05-06 22:15 -38.33568 -62.03430 8129 ft 277 kts 265°
2026-05-06 22:15 -38.34105 -62.05789 7535 ft 280 kts 249°
2026-05-06 22:15 -38.34875 -62.08056 6977 ft 278 kts 255°
2026-05-06 22:16 -38.35247 -62.10467 6451 ft 278 kts 264°
2026-05-06 22:16 -38.35476 -62.12905 5928 ft 277 kts 266°
2026-05-06 22:16 -38.35691 -62.15346 5416 ft 277 kts 265°
2026-05-06 22:16 -38.35902 -62.17802 4902 ft 278 kts 265°
2026-05-06 22:17 -38.36088 -62.20222 4340 ft 280 kts 265°
2026-05-06 22:17 -38.36270 -62.22742 3624 ft 280 kts 264°
2026-05-06 22:17 -38.36419 -62.25201 2978 ft 284 kts 265°
2026-05-06 22:17 -38.36554 -62.27676 2723 ft 272 kts 263°
2026-05-06 22:18 -38.37276 -62.29860 2659 ft 270 kts 227°
2026-05-06 22:18 -38.38811 -62.31108 2672 ft 262 kts 193°
2026-05-06 22:18 -38.40579 -62.31511 2845 ft 261 kts 183°
2026-05-06 22:18 -38.42403 -62.31809 3030 ft 263 kts 182°
2026-05-06 22:19 -38.44237 -62.32097 3000 ft 267 kts 182°
2026-05-06 22:19 -38.46069 -62.32378 3013 ft 264 kts 181°
2026-05-06 22:19 -38.47840 -62.32108 2977 ft 253 kts 158°
2026-05-06 22:19 -38.49481 -62.31259 2996 ft 253 kts 152°
2026-05-06 22:20 -38.51017 -62.30370 3004 ft 227 kts 151°
2026-05-06 22:20 -38.52405 -62.29533 3010 ft 217 kts 149°
2026-05-06 22:20 -38.53762 -62.28657 2881 ft 221 kts 148°
2026-05-06 22:20 -38.55152 -62.27748 2650 ft 225 kts 148°
2026-05-06 22:21 -38.56529 -62.26847 2401 ft 221 kts 148°
2026-05-06 22:21 -38.57893 -62.25935 2196 ft 219 kts 147°
2026-05-06 22:21 -38.59219 -62.25067 2195 ft 205 kts 148°
2026-05-06 22:21 -38.60423 -62.24319 2196 ft 182 kts 147°
2026-05-06 22:22 -38.61502 -62.23548 2169 ft 176 kts 138°
2026-05-06 22:22 -38.62445 -62.22593 2198 ft 173 kts 134°
2026-05-06 22:22 -38.63394 -62.21617 2200 ft 175 kts 135°
2026-05-06 22:22 -38.64343 -62.20653 2208 ft 178 kts 135°
2026-05-06 22:23 -38.65283 -62.19615 2001 ft 172 kts 131°
2026-05-06 22:23 -38.66116 -62.18597 1808 ft 157 kts 130°
2026-05-06 22:23 -38.66925 -62.17784 1508 ft 140 kts 138°
2026-05-06 22:23 -38.67786 -62.17230 1121 ft 140 kts 150°
2026-05-06 22:24 -38.68762 -62.16831 810 ft 152 kts 157°
2026-05-06 22:24 -38.69785 -62.16447 652 ft 154 kts 156°
2026-05-06 22:24 -38.70840 -62.16053 466 ft 158 kts 159°
2026-05-06 22:24 -38.71836 -62.15676 255 ft 137 kts 159°
2026-05-06 22:25 -38.72208 -62.15527 255 ft 109 kts 163°
2026-05-06 22:25 -38.72619 -62.15377 252 ft 15 kts 166°
2026-05-06 22:25 -38.72684 -62.15358 252 ft 7 kts 170°
2026-05-06 22:25 -38.72720 -62.15359 252 ft 4 kts 179°